When you browse on this site, cookies collect data to enhance your experience and personalize the content and advertising you see.
Visit our Privacy Policy to learn more. By continuing to use the site, you agree to this use of cookies and data.
  • In Belgium
  • List of Countries
  • For 7 days
  • Water Temperature
  • Satellite Maps
  • Weather Map
  • Weather Widgets
  • user-avatar
    Login

    Hourly Weather Elovka

    Today, 19 January, Saturday

    Time Temperature Precipitation Wind Pressure Humidity
    00:00 -10°C° 0 mm 4 mps 732 mmHg 87%
    01:00 -10°C° 0 mm 4 mps 732 mmHg 88%
    02:00 -11°C° 0 mm 4 mps 732 mmHg 88%
    03:00 -11°C° 0 mm 4 mps 733 mmHg 89%
    04:00 -12°C° 0 mm 3 mps 733 mmHg 91%
    05:00 -12°C° 0 mm 3 mps 733 mmHg 91%
    06:00 -12°C° 0 mm 3 mps 733 mmHg 92%
    07:00 -10°C° 0 mm 2 mps 733 mmHg 92%
    08:00 -10°C° 0 mm 2 mps 733 mmHg 92%
    09:00 -10°C° 0 mm 2 mps 733 mmHg 92%
    10:00 -10°C° 0 mm 3 mps 733 mmHg 92%
    11:00 -9°C° 0 mm 3 mps 733 mmHg 91%
    12:00 -8°C° 0 mm 3 mps 733 mmHg 89%
    13:00 -7°C° 0 mm 4 mps 732 mmHg 87%
    14:00 -7°C° 0 mm 3 mps 732 mmHg 88%
    15:00 -7°C° 0 mm 3 mps 732 mmHg 89%
    16:00 -7°C° 0 mm 3 mps 732 mmHg 90%
    17:00 -7°C° 0 mm 3 mps 732 mmHg 91%
    18:00 -7°C° 0 mm 3 mps 732 mmHg 91%
    19:00 -7°C° 0 mm 3 mps 732 mmHg 92%
    20:00 -8°C° 0 mm 3 mps 732 mmHg 92%
    21:00 -7°C° 0 mm 2 mps 732 mmHg 92%
    22:00 -7°C° 0 mm 2 mps 732 mmHg 93%
    23:00 -7°C° 0 mm 2 mps 732 mmHg 93%

    Tomorrow, 20 January, Sunday

    Time Temperature Precipitation Wind Pressure Humidity
    00:00 -8°C° 0 mm 2 mps 732 mmHg 94%
    01:00 -8°C° 0 mm 2 mps 732 mmHg 94%
    02:00 -8°C° 0 mm 2 mps 732 mmHg 94%
    03:00 -7°C° 0 mm 1 mps 732 mmHg 95%
    04:00 -7°C° 0 mm 1 mps 731 mmHg 95%
    05:00 -7°C° 0.1 mm 1 mps 731 mmHg 96%
    06:00 -7°C° 0.1 mm 1 mps 731 mmHg 96%
    07:00 -6°C° 0.1 mm 1 mps 731 mmHg 97%
    08:00 -6°C° 0.4 mm 1 mps 730 mmHg 96%
    09:00 -4°C° 0.4 mm 1 mps 730 mmHg 96%
    10:00 -4°C° 0.4 mm 1 mps 730 mmHg 96%
    11:00 -3°C° 0.4 mm 1 mps 730 mmHg 95%
    12:00 -3°C° 0.4 mm 1 mps 729 mmHg 95%
    13:00 -3°C° 0.4 mm 1 mps 729 mmHg 94%
    14:00 -3°C° 0.3 mm 1 mps 729 mmHg 95%
    15:00 -3°C° 0.3 mm 1 mps 729 mmHg 96%
    16:00 -3°C° 0.3 mm 1 mps 728 mmHg 97%
    17:00 -5°C° 0.1 mm 2 mps 729 mmHg 95%
    18:00 -6°C° 0.1 mm 2 mps 729 mmHg 94%
    19:00 -7°C° 0.1 mm 3 mps 729 mmHg 93%
    20:00 -9°C° 0 mm 4 mps 729 mmHg 91%
    21:00 -11°C° 0 mm 5 mps 730 mmHg 88%
    22:00 -13°C° 0 mm 5 mps 730 mmHg 86%
    23:00 -14°C° 0 mm 5 mps 731 mmHg 87%

    Day after tomorrow, 21 January, Monday

    Time Temperature Precipitation Wind Pressure Humidity
    00:00 -15°C° 0 mm 5 mps 732 mmHg 88%
    01:00 -18°C° 0 mm 5 mps 732 mmHg 89%
    02:00 -18°C° 0 mm 5 mps 733 mmHg 89%
    03:00 -18°C° 0 mm 4 mps 734 mmHg 89%
    04:00 -18°C° 0 mm 4 mps 735 mmHg 88%
    05:00 -18°C° 0 mm 4 mps 735 mmHg 89%
    06:00 -19°C° 0 mm 4 mps 735 mmHg 89%
    07:00 -18°C° 0 mm 3 mps 736 mmHg 90%
    08:00 -18°C° 0 mm 4 mps 736 mmHg 89%
    09:00 -18°C° 0 mm 4 mps 736 mmHg 87%
    10:00 -17°C° 0 mm 4 mps 736 mmHg 86%
    11:00 -16°C° 0 mm 4 mps 736 mmHg 85%
    12:00 -15°C° 0 mm 4 mps 736 mmHg 84%
    13:00 -14°C° 0 mm 4 mps 736 mmHg 82%
    14:00 -14°C° 0 mm 4 mps 735 mmHg 83%
    15:00 -14°C° 0 mm 4 mps 735 mmHg 84%
    16:00 -13°C° 0 mm 3 mps 735 mmHg 84%
    17:00 -15°C° 0 mm 4 mps 735 mmHg 85%
    18:00 -15°C° 0 mm 4 mps 735 mmHg 85%
    19:00 -15°C° 0 mm 4 mps 735 mmHg 86%
    20:00 -16°C° 0 mm 4 mps 735 mmHg 86%
    21:00 -15°C° 0 mm 3 mps 734 mmHg 86%
    22:00 -16°C° 0 mm 3 mps 734 mmHg 87%
    23:00 -16°C° 0 mm 3 mps 734 mmHg 87%

    22 January, Tuesday

    Time Temperature Precipitation Wind Pressure Humidity
    00:00 -16°C° 0 mm 3 mps 734 mmHg 87%
    01:00 -15°C° 0 mm 3 mps 734 mmHg 87%
    02:00 -15°C° 0 mm 3 mps 734 mmHg 87%
    03:00 -14°C° 0 mm 3 mps 734 mmHg 88%
    04:00 -14°C° 0 mm 3 mps 733 mmHg 88%
    05:00 -14°C° 0.1 mm 3 mps 733 mmHg 89%
    06:00 -14°C° 0.1 mm 3 mps 732 mmHg 91%
    07:00 -14°C° 0.1 mm 3 mps 732 mmHg 92%
    08:00 -13°C° 0.1 mm 3 mps 731 mmHg 92%
    09:00 -13°C° 0.1 mm 3 mps 731 mmHg 91%
    10:00 -12°C° 0.1 mm 3 mps 731 mmHg 91%
    11:00 -12°C° 0.1 mm 3 mps 731 mmHg 89%
    12:00 -10°C° 0.1 mm 3 mps 730 mmHg 87%
    13:00 -10°C° 0.1 mm 3 mps 730 mmHg 85%
    14:00 -9°C° 0.1 mm 2 mps 730 mmHg 88%
    15:00 -10°C° 0.1 mm 2 mps 730 mmHg 91%
    16:00 -10°C° 0.1 mm 2 mps 729 mmHg 93%
    17:00 -10°C° 0.1 mm 1 mps 729 mmHg 94%
    18:00 -10°C° 0.1 mm 1 mps 729 mmHg 95%
    19:00 -11°C° 0.1 mm 1 mps 729 mmHg 96%
    20:00 -12°C° 0 mm 1 mps 729 mmHg 96%
    21:00 -14°C° 0 mm 2 mps 729 mmHg 96%
    22:00 -15°C° 0 mm 2 mps 730 mmHg 95%
    23:00 -15°C° 0 mm 2 mps 730 mmHg 94%

    23 January, Wednesday

    Time Temperature Precipitation Wind Pressure Humidity
    00:00 -16°C° 0 mm 2 mps 731 mmHg 94%
    01:00 -18°C° 0 mm 3 mps 732 mmHg 93%
    02:00 -18°C° 0 mm 3 mps 732 mmHg 92%
    03:00 -18°C° 0 mm 3 mps 733 mmHg 90%
    04:00 -19°C° 0 mm 4 mps 734 mmHg 89%
    05:00 -20°C° 0 mm 4 mps 734 mmHg 89%
    06:00 -22°C° 0 mm 4 mps 735 mmHg 90%
    07:00 -23°C° 0 mm 4 mps 735 mmHg 90%
    08:00 -24°C° 0 mm 4 mps 736 mmHg 90%
    09:00 -24°C° 0 mm 4 mps 737 mmHg 89%
    10:00 -25°C° 0 mm 4 mps 737 mmHg 89%
    11:00 -24°C° 0 mm 4 mps 738 mmHg 88%
    12:00 -24°C° 0 mm 4 mps 738 mmHg 87%
    13:00 -23°C° 0 mm 4 mps 739 mmHg 86%
    14:00 -24°C° 0 mm 4 mps 739 mmHg 87%
    15:00 -25°C° 0 mm 4 mps 739 mmHg 88%
    16:00 -25°C° 0 mm 3 mps 740 mmHg 89%
    17:00 -26°C° 0 mm 4 mps 740 mmHg 90%
    18:00 -27°C° 0 mm 4 mps 741 mmHg 90%
    19:00 -27°C° 0 mm 4 mps 741 mmHg 90%
    20:00 -29°C° 0 mm 4 mps 742 mmHg 91%
    21:00 -29°C° 0 mm 4 mps 742 mmHg 91%
    22:00 -30°C° 0 mm 4 mps 742 mmHg 91%
    23:00 -30°C° 0 mm 4 mps 743 mmHg 92%

    24 January, Thursday

    Time Temperature Precipitation Wind Pressure Humidity
    00:00 -30°C° 0 mm 4 mps 743 mmHg 92%
    01:00 -30°C° 0 mm 4 mps 744 mmHg 92%
    02:00 -29°C° 0 mm 3 mps 744 mmHg 93%
    03:00 -29°C° 0 mm 3 mps 744 mmHg 93%
    04:00 -29°C° 0 mm 3 mps 744 mmHg 93%
    05:00 -29°C° 0 mm 3 mps 744 mmHg 94%
    06:00 -29°C° 0 mm 3 mps 744 mmHg 94%
    07:00 -27°C° 0 mm 2 mps 744 mmHg 95%
    08:00 -26°C° 0 mm 2 mps 744 mmHg 94%
    09:00 -24°C° 0 mm 2 mps 744 mmHg 93%
    10:00 -23°C° 0 mm 2 mps 744 mmHg 92%
    11:00 -22°C° 0 mm 3 mps 744 mmHg 91%
    12:00 -21°C° 0 mm 3 mps 744 mmHg 89%
    13:00 -18°C° 0 mm 3 mps 743 mmHg 87%
    14:00 -18°C° 0 mm 3 mps 743 mmHg 88%
    15:00 -18°C° 0 mm 2 mps 743 mmHg 89%
    16:00 -18°C° 0 mm 2 mps 743 mmHg 90%
    17:00 -18°C° 0 mm 2 mps 743 mmHg 90%
    18:00 -18°C° 0 mm 3 mps 743 mmHg 89%
    19:00 -18°C° 0 mm 3 mps 742 mmHg 89%
    20:00 -18°C° 0 mm 3 mps 742 mmHg 88%
    21:00 -18°C° 0 mm 3 mps 742 mmHg 87%
    22:00 -19°C° 0 mm 4 mps 741 mmHg 87%
    23:00 -18°C° 0 mm 3 mps 741 mmHg 86%
    Show more